This is the latest recevied weather packets stored in our database for station/object KC4JIR. If no packets are shown the sender has not sent any weather packets the latest 10 day(s).
| Time | Temp. | Humidity | Pressure | Rain* | Wind** | Luminosity | Snow |
|---|---|---|---|---|---|---|---|
| 1788443614 | 27.22° C | 90% | 1015.6 hPa | 0 mm | - | 111 W/m² | - |
| 1788443313 | 27.22° C | 90% | 1015.5 hPa | 0 mm | - | 87 W/m² | - |
| 1788443008 | 26.67° C | 90% | 1015.7 hPa | 0 mm | - | 74 W/m² | - |
| 1788442705 | 26.67° C | 92% | 1015.9 hPa | 0 mm | - | 78 W/m² | - |
| 1788442402 | 26.67° C | 92% | 1015.9 hPa | 0 mm | - | 68 W/m² | - |
| 1788442096 | 26.11° C | 94% | 1015.8 hPa | 0 mm | - | 63 W/m² | - |
| 1788441792 | 25.56° C | 96% | 1015.4 hPa | 0 mm | - | 69 W/m² | - |
| 1788441487 | 25° C | 97% | 1015.8 hPa | 0 mm | - | 53 W/m² | - |
| 1788441186 | 24.44° C | 99% | 1015.6 hPa | 0 mm | - | 49 W/m² | - |
| 1788440881 | 24.44° C | 99% | 1015.7 hPa | 0 mm | - | 49 W/m² | - |
| 1788440576 | 23.89° C | 99% | 1015.6 hPa | 0 mm | - | 55 W/m² | - |
| 1788440274 | 23.89° C | 99% | 1015.5 hPa | 0 mm | - | 43 W/m² | - |
| 1788439970 | 23.89° C | 99% | 1015.9 hPa | 0 mm | - | 45 W/m² | - |
| 1788439669 | 23.89° C | 99% | 1015.7 hPa | 0 mm | - | 37 W/m² | - |
| 1788439365 | 23.89° C | 99% | 1015.7 hPa | 0 mm | - | 34 W/m² | - |
| 1788439063 | 23.33° C | 99% | 1015.6 hPa | 0 mm | - | 32 W/m² | - |
| 1788438763 | 23.33° C | 99% | 1015.8 hPa | 0 mm | - | 31 W/m² | - |
| 1788438461 | 23.33° C | 99% | 1015.9 hPa | 0 mm | - | 32 W/m² | - |
| 1788438156 | 23.33° C | 99% | 1015.9 hPa | 0 mm | - | 30 W/m² | - |
| 1788437854 | 23.33° C | 99% | 1015.8 hPa | 0 mm | - | 34 W/m² | - |
| 1788437551 | 23.33° C | 99% | 1015.7 hPa | 0 mm | - | 36 W/m² | - |
| 1788437251 | 22.78° C | 99% | 1015.8 hPa | 0 mm | - | 35 W/m² | - |
| 1788436944 | 22.78° C | 99% | 1015.8 hPa | 0 mm | - | 24 W/m² | - |
| 1788436643 | 22.78° C | 99% | 1015.7 hPa | 0 mm | - | 18 W/m² | - |
| 1788436338 | 22.78° C | 99% | 1015.5 hPa | 0 mm | - | 16 W/m² | - |
* Rain latest hour (hover to see other rain measurements)
** Current wind speed in m/s (hover to see current wind gust speed)